Henderson, NV

2:44 PM PST on February 19, 2017 (GMT -0800)
Henderson

Weather History for KHND - December, 2013

Change the Weather History Date:

Monday, December 9, 2013

  Actual Average (KLAS) Record (KLAS)
Temperature  
Mean Temperature 30 °F -  
Max Temperature 37 °F 57 °F 71 °F (1950)
Min Temperature 24 °F 35 °F 16 °F (1956)
Degree Days  
Heating Degree Days 34    
Moisture  
Dew Point 3 °F    
Average Humidity 33    
Maximum Humidity 55    
Minimum Humidity 18    
Precipitation  
Precipitation 0.00 in - - ()
Sea Level Pressure  
Sea Level Pressure 30.51 in    
Wind  
Wind Speed 6 mph (NE)    
Max Wind Speed 17 mph    
Max Gust Speed 24 mph    
Visibility 10 miles    
Events      
Averages and records for this station are not official NWS values.
T = Trace of Precipitation, MM = Missing Value Source: NWS Daily Summary

Daily Weather History Graph

Daily Weather History Graph

Search for Another Location

Airport or City:

Trip Planner

Search our weather history database for the weather conditions in past years. The results will help you decide how hot, cold, wet, or windy it might be!

Date:

Astronomy

Dec. 09, 2013 Rise Set
Actual Time 6:39 AM PST 4:26 PM PST
Civil Twilight 6:11 AM PST 4:54 PM PST
Nautical Twilight 5:39 AM PST 5:26 PM PST
Astronomical Twilight 5:08 AM PST 5:57 PM PST
Moon 11:46 AM PST (12/9) No Moon Set
Length of Visible Light 10h 43m
Length of Day
9h 46m
First Quarter, 52% of the Moon is Illuminated
Dec 9
First Quarter
Dec 17
Full
Dec 25
Last Quarter
Jan 1
New
Jan 7
First Quarter

Hourly Weather History & Observations

Time (PST) Temp. Windchill Dew Point Humidity Pressure Visibility Wind Dir Wind Speed Gust Speed Precip Events Conditions
12:56 AM 25.2 °F - 9.1 °F 51% 30.32 in 10.0 mi Calm Calm - N/A   Clear
1:56 AM 24.1 °F - 10.0 °F 55% 30.34 in 10.0 mi Calm Calm - N/A   Clear
2:56 AM 27.1 °F - 5.0 °F 39% 30.35 in 10.0 mi Calm Calm - N/A   Clear
3:56 AM 28.0 °F 17.0 °F 3.0 °F 34% 30.37 in 10.0 mi NE 13.8 mph - N/A   Clear
4:56 AM 28.0 °F 18.6 °F 2.1 °F 33% 30.40 in 10.0 mi NE 10.4 mph - N/A   Clear
5:56 AM 27.1 °F 17.5 °F 2.1 °F 34% 30.45 in 10.0 mi NE 10.4 mph - N/A   Clear
6:56 AM 26.1 °F - 1.0 °F 34% 30.48 in 10.0 mi Calm Calm - N/A   Clear
7:56 AM 30.0 °F 20.0 °F 0.1 °F 28% 30.53 in 10.0 mi NNE 12.7 mph - N/A   Clear
8:56 AM 32.9 °F 23.2 °F 0.1 °F 25% 30.56 in 10.0 mi NNE 13.8 mph - N/A   Clear
9:56 AM 34.0 °F 24.2 °F 0.1 °F 24% 30.59 in 10.0 mi North 15.0 mph 24.2 mph N/A   Clear
10:56 AM 34.9 °F 25.3 °F -0.9 °F 22% 30.58 in 10.0 mi NNE 15.0 mph - 0.00 in   Clear
11:56 AM 36.9 °F 34.3 °F -0.9 °F 20% 30.55 in 10.0 mi NNE 3.5 mph - N/A   Clear
12:56 PM 37.9 °F 28.5 °F -2.9 °F 18% 30.54 in 10.0 mi NNE 17.3 mph - N/A   Clear
1:56 PM 37.9 °F 29.2 °F -1.8 °F 19% 30.53 in 10.0 mi NE 15.0 mph 21.9 mph N/A   Clear
2:56 PM 37.9 °F 30.0 °F -1.8 °F 19% 30.53 in 10.0 mi NE 12.7 mph - N/A   Clear
3:56 PM 36.9 °F 29.1 °F 0.1 °F 21% 30.54 in 10.0 mi NE 11.5 mph - N/A   Clear
4:56 PM 34.0 °F - 2.1 °F 26% 30.54 in 10.0 mi Calm Calm - N/A   Clear
5:56 PM 32.9 °F 25.3 °F 3.0 °F 28% 30.56 in 10.0 mi NE 9.2 mph - N/A   Clear
6:56 PM 30.0 °F - 5.0 °F 35% 30.59 in 10.0 mi Calm Calm - N/A   Clear
7:56 PM 31.1 °F - 4.1 °F 32% 30.58 in 10.0 mi Calm Calm - N/A   Clear
8:56 PM 26.1 °F - 9.1 °F 49% 30.58 in 10.0 mi Calm Calm - N/A   Clear
9:56 PM 27.1 °F - 7.2 °F 43% 30.58 in 10.0 mi Calm Calm - N/A   Clear
10:56 PM 28.0 °F - 7.2 °F 41% 30.58 in 10.0 mi Calm Calm - 0.00 in   Clear
11:56 PM 25.2 °F - 9.1 °F 51% 30.57 in 10.0 mi Calm Calm - 0.00 in   Clear